Location: Asheville, NC
(35.6000°N, 82.5500°W)
Time: 15:01:23
(UTC-05:00)

NUDT-PHONESAT - Pass Details

Date: 09 January 2018
Orbit: 494 x 513 km, 97.4° (Epoch: 18 January)

Event Time Altitude Azimuth Distance (km) Brightness Sun altitude
Rises 05:44:43 0° 37° (NE) 2,603 ? -23.0°
Reaches altitude 10° 05:48:06 10° 71° (ENE) 1,707 ? -22.3°
Maximum altitude 05:49:27 12° 93° (E) 1,599 ? -22.0°
Drops below altitude 10° 05:50:47 10° 114° (ESE) 1,698 ? -21.8°
Sets 05:54:07 0° 148° (SSE) 2,570 ? -21.1°
